Simultaneous Nadir Overpasses (SNOs) Predictions

Prediction of SNOs between METOP-B and TERRA Satellite Orbit:

Table of predicted SNOs for the next 14.0 days since TLE Epoch: 4/11/2015
Index Date (METOP-B) Time (METOP-B) Lat,Lon (METOP-B) SZA (METOP-B ) Date (TERRA) Time (TERRA) Lat,Lon (TERRA) SZA (TERRA ) Distance(km) Time Diff (sec)
1 04/11/2015 14:11:37 -81.30,-165.81 104.26 04/11/2015 14:12:17 -81.29,-165.89 104.26 1.42 40
2 04/11/2015 15:02:17 81.30, 1.69 75.75 04/11/2015 15:01:43 81.30, 1.88 75.76 3.17 34
3 04/14/2015 09:46:00 -81.30, -99.44 105.26 04/14/2015 09:46:30 -81.29, -99.39 105.25 0.87 30
4 04/14/2015 10:36:39 81.30, 68.42 74.79 04/14/2015 10:35:56 81.30, 68.34 74.76 1.39 43
5 04/17/2015 05:20:22 -81.30, -32.74 106.21 04/17/2015 05:20:42 -81.31, -32.69 106.19 1.26 20
6 04/17/2015 06:11:01 81.31, 135.09 73.85 04/17/2015 06:10:08 81.31, 135.02 73.82 1.26 53
7 04/20/2015 00:54:44 -81.30, 33.51 107.18 04/20/2015 00:54:54 -81.29, 33.48 107.19 0.85 10
8 04/20/2015 01:45:22 81.31,-158.30 72.92 04/20/2015 01:44:19 81.31,-158.47 72.87 2.99 63
9 04/22/2015 19:38:26 81.29, -67.80 71.85 04/22/2015 19:39:39 81.29, -67.78 71.89 0.55 73
10 04/22/2015 20:29:06 -81.30, 100.09 108.09 04/22/2015 20:29:05 -81.31, 100.23 108.07 2.49 1




NCC Satellite Simultaneous Nadir Overpasses (SNOs) Prediction Service
